�������l�o���
Date,Time,MP-1(��Sv/h),MP-2(��Sv/h),MP-3(��Sv/h),MP-4(��Sv/h),MP-5(��Sv/h),MP-6(��Sv/h),MP-7(��Sv/h),MP-8(��Sv/h),����,����(m/s),���J
2018/08/09,00:00,0.808,1.160,0.826,1.483,1.030,0.459,0.811,0.768,�k��,10.7,��
2018/08/09,00:10,0.809,1.162,0.827,1.486,1.032,0.457,0.809,0.769,�k��,11.8,�L
2018/08/09,00:20,0.809,1.162,0.827,1.484,1.033,0.459,0.808,0.768,���k��,12.8,�L
2018/08/09,00:30,0.808,1.161,0.825,1.483,1.032,0.458,0.809,0.766,���k��,13.0,�L
2018/08/09,00:40,0.807,1.158,0.822,1.485,1.032,0.459,0.809,0.768,�k��,13.3,�L
2018/08/09,00:50,0.809,1.157,0.824,1.487,1.031,0.459,0.809,0.767,���k��,12.0,�L
2018/08/09,01:00,0.810,1.159,0.824,1.484,1.031,0.459,0.807,0.766,���k��,10.0,�L
2018/08/09,01:10,0.810,1.160,0.824,1.483,1.031,0.459,0.807,0.766,�k��,9.7,�L
2018/08/09,01:20,0.808,1.158,0.825,1.487,1.034,0.459,0.809,0.768,�k��,9.4,��
2018/08/09,01:30,0.810,1.160,0.825,1.484,1.033,0.459,0.810,0.767,���k��,9.0,��
2018/08/09,01:40,0.808,1.161,0.825,1.484,1.032,0.458,0.809,0.768,���k��,8.5,��
2018/08/09,01:50,0.808,1.164,0.825,1.484,1.034,0.459,0.809,0.768,���k��,8.7,��
2018/08/09,02:00,0.809,1.161,0.826,1.485,1.032,0.460,0.809,0.768,�k��,9.0,��
2018/08/09,02:10,0.808,1.161,0.828,1.486,1.036,0.459,0.808,0.768,�k��,8.9,��
2018/08/09,02:20,0.809,1.163,0.826,1.486,1.034,0.459,0.809,0.768,�k��,8.6,�L
2018/08/09,02:30,0.809,1.161,0.828,1.487,1.035,0.459,0.809,0.768,�k��,10.5,��
2018/08/09,02:40,0.808,1.161,0.828,1.484,1.037,0.459,0.811,0.766,���k��,11.1,��
2018/08/09,02:50,0.808,1.161,0.826,1.485,1.035,0.459,0.807,0.767,���k��,11.3,�L
2018/08/09,03:00,0.801,1.144,0.817,1.470,1.015,0.454,0.802,0.761,���k��,12.1,�L
2018/08/09,03:10,0.801,1.146,0.820,1.464,1.020,0.454,0.804,0.762,���k��,12.4,�L
2018/08/09,03:20,0.803,1.147,0.819,1.467,1.022,0.455,0.803,0.762,���k��,11.3,�L
2018/08/09,03:30,0.800,1.143,0.817,1.459,1.013,0.453,0.801,0.761,���k��,10.2,�L
2018/08/09,03:40,0.801,1.143,0.816,1.459,1.016,0.455,0.803,0.763,��,10.0,�L
2018/08/09,03:50,0.803,1.147,0.818,1.461,1.017,0.455,0.803,0.761,��,10.5,��
2018/08/09,04:00,0.801,1.147,0.818,1.462,1.021,0.455,0.804,0.763,��,10.2,��
2018/08/09,04:10,0.804,1.149,0.820,1.463,1.022,0.456,0.804,0.763,��,9.5,��
2018/08/09,04:20,0.805,1.153,0.821,1.466,1.023,0.456,0.805,0.763,��,9.2,��
2018/08/09,04:30,0.806,1.153,0.822,1.469,1.023,0.456,0.806,0.765,��,8.9,�L
2018/08/09,04:40,0.805,1.153,0.823,1.472,1.025,0.456,0.805,0.764,��,9.7,�L
2018/08/09,04:50,0.805,1.154,0.823,1.470,1.022,0.457,0.806,0.765,��,10.7,��
2018/08/09,05:00,0.808,1.155,0.822,1.474,1.026,0.457,0.807,0.766,��,9.8,��
2018/08/09,05:10,0.808,1.155,0.825,1.473,1.024,0.457,0.806,0.767,��,9.7,��
2018/08/09,05:20,0.807,1.158,0.824,1.473,1.026,0.458,0.808,0.766,���k��,9.6,��
2018/08/09,05:30,0.807,1.155,0.825,1.472,1.029,0.461,0.807,0.767,���k��,9.9,��
2018/08/09,05:40,0.807,1.156,0.824,1.477,1.028,0.458,0.807,0.766,���k��,10.2,��
2018/08/09,05:50,0.808,1.160,0.825,1.474,1.030,0.459,0.808,0.766,���k��,10.5,��
2018/08/09,06:00,0.809,1.158,0.823,1.476,1.030,0.460,0.806,0.768,���k��,12.0,�L
2018/08/09,06:10,0.808,1.163,0.824,1.478,1.029,0.459,0.809,0.769,���k��,11.8,�L
2018/08/09,06:20,0.808,1.161,0.826,1.476,1.029,0.459,0.807,0.766,���k��,12.4,�L
2018/08/09,06:30,0.808,1.159,0.824,1.478,1.029,0.461,0.807,0.766,���k��,12.4,�L
2018/08/09,06:40,0.809,1.156,0.823,1.476,1.027,0.460,0.808,0.764,���k��,12.5,�L
2018/08/09,06:50,0.807,1.153,0.820,1.474,1.027,0.459,0.806,0.764,���k��,13.0,�L
2018/08/09,07:00,0.810,1.156,0.822,1.477,1.027,0.460,0.806,0.765,���k��,12.8,�L
2018/08/09,07:10,0.807,1.154,0.821,1.472,1.028,0.460,0.807,0.765,���k��,12.7,�L
2018/08/09,07:20,0.804,1.145,0.821,1.470,1.024,0.462,0.805,0.762,���k��,12.1,�L
2018/08/09,07:30,0.802,1.143,0.817,1.464,1.022,0.458,0.804,0.764,���k��,12.4,�L
2018/08/09,07:40,0.802,1.140,0.818,1.459,1.017,0.457,0.801,0.760,���k��,12.1,�L
2018/08/09,07:50,0.800,1.136,0.815,1.453,1.013,0.457,0.799,0.760,���k��,11.1,�L
2018/08/09,08:00,0.803,1.133,0.816,1.448,1.013,0.457,0.801,0.759,���k��,12.4,�L
2018/08/09,08:10,0.801,1.132,0.817,1.451,1.011,0.459,0.798,0.760,���k��,13.1,�L
2018/08/09,08:20,0.805,1.136,0.817,1.453,1.013,0.460,0.800,0.760,���k��,13.1,�L
2018/08/09,08:30,0.803,1.134,0.816,1.448,1.012,0.459,0.799,0.760,���k��,14.1,�L
2018/08/09,08:40,0.807,1.141,0.821,1.454,1.012,0.462,0.800,0.760,���k��,13.9,�L
2018/08/09,08:50,0.807,1.144,0.820,1.458,1.017,0.462,0.801,0.764,���k��,12.7,�L
2018/08/09,09:00,0.807,1.145,0.821,1.460,1.017,0.462,0.802,0.763,���k��,13.0,�L
2018/08/09,09:10,0.810,1.145,0.821,1.462,1.017,0.462,0.802,0.763,���k��,14.1,�L
2018/08/09,09:20,0.810,1.148,0.819,1.463,1.017,0.461,0.802,0.763,���k��,14.1,�L
2018/08/09,09:30,0.809,1.149,0.820,1.463,1.016,0.461,0.803,0.765,���k��,13.3,�L
2018/08/09,09:40,0.805,1.148,0.820,1.460,1.013,0.460,0.801,0.763,���k��,12.4,�L
2018/08/09,09:50,0.805,1.143,0.815,1.456,1.013,0.460,0.800,0.761,���k��,12.0,�L
2018/08/09,10:00,0.806,1.142,0.819,1.455,1.010,0.461,0.802,0.762,���k��,11.9,�L
2018/08/09,10:10,0.808,1.144,0.820,1.461,1.014,0.459,0.803,0.764,���k��,11.9,�L
2018/08/09,10:20,0.808,1.147,0.821,1.459,1.014,0.461,0.802,0.762,���k��,13.5,�L
2018/08/09,10:30,0.807,1.144,0.817,1.458,1.013,0.461,0.803,0.764,���k��,13.1,�L
2018/08/09,10:40,0.808,1.145,0.819,1.460,1.016,0.461,0.800,0.765,���k��,13.3,�L
2018/08/09,10:50,0.810,1.146,0.820,1.463,1.014,0.462,0.804,0.764,��,14.4,�L
2018/08/09,11:00,0.810,1.150,0.821,1.464,1.017,0.461,0.803,0.763,��,13.3,�L
2018/08/09,11:10,0.809,1.151,0.821,1.464,1.016,0.461,0.803,0.765,���k��,14.2,�L
2018/08/09,11:20,0.808,1.150,0.819,1.461,1.019,0.462,0.805,0.767,���k��,13.9,�L
2018/08/09,11:30,0.808,1.151,0.820,1.463,1.016,0.460,0.805,0.766,���k��,12.4,�L
2018/08/09,11:40,0.809,1.152,0.820,1.466,1.018,0.462,0.805,0.766,���k��,13.8,�L
2018/08/09,11:50,0.808,1.148,0.819,1.464,1.013,0.461,0.804,0.764,���k��,14.2,�L
2018/08/09,12:00,0.808,1.148,0.820,1.464,1.013,0.461,0.803,0.761,���k��,13.3,�L
2018/08/09,12:10,0.807,1.146,0.818,1.459,1.013,0.460,0.802,0.764,���k��,13.5,�L
2018/08/09,12:20,0.807,1.146,0.816,1.456,1.013,0.461,0.800,0.764,���k��,14.4,�L
2018/08/09,12:30,0.807,1.146,0.818,1.456,1.015,0.460,0.802,0.764,���k��,14.7,�L
2018/08/09,12:40,0.808,1.145,0.819,1.457,1.014,0.463,0.801,0.764,���k��,13.3,�L
2018/08/09,12:50,0.805,1.148,0.820,1.455,1.017,0.463,0.802,0.765,���k��,12.4,�L
2018/08/09,13:00,0.806,1.146,0.820,1.457,1.015,0.461,0.801,0.764,�k��,12.1,�L
2018/08/09,13:10,0.806,1.147,0.819,1.458,1.015,0.462,0.802,0.766,���k��,12.4,�L
2018/08/09,13:20,0.806,1.147,0.820,1.459,1.016,0.462,0.801,0.764,�k��,10.9,�L
2018/08/09,13:30,0.808,1.148,0.819,1.459,1.015,0.460,0.803,0.763,�k��,11.8,�L
2018/08/09,13:40,0.807,1.149,0.820,1.458,1.015,0.461,0.803,0.765,�k��,11.6,�L
2018/08/09,13:50,0.805,1.147,0.819,1.461,1.015,0.462,0.803,0.765,�k��,12.7,�L
2018/08/09,14:00,0.807,1.151,0.818,1.462,1.016,0.460,0.802,0.766,�k��,13.8,�L
2018/08/09,14:10,0.808,1.150,0.819,1.461,1.018,0.461,0.802,0.765,�k�k��,12.7,�L
2018/08/09,14:20,0.807,1.152,0.820,1.462,1.017,0.461,0.801,0.764,�k�k��,13.5,�L
2018/08/09,14:30,0.806,1.150,0.819,1.463,1.017,0.460,0.805,0.764,�k�k��,11.6,�L
2018/08/09,14:40,0.807,1.151,0.820,1.464,1.019,0.460,0.803,0.766,�k,13.8,�L
2018/08/09,14:50,0.807,1.150,0.818,1.465,1.019,0.460,0.804,0.763,�k,12.7,�L
2018/08/09,15:00,0.806,1.154,0.817,1.463,1.017,0.459,0.806,0.765,�k,10.8,�L
2018/08/09,15:10,0.807,1.152,0.819,1.464,1.019,0.460,0.803,0.765,�k,13.0,�L
2018/08/09,15:20,0.804,1.154,0.820,1.465,1.017,0.460,0.804,0.764,�k�k��,13.8,�L
2018/08/09,15:30,0.803,1.150,0.817,1.458,1.015,0.460,0.803,0.765,�k�k��,13.3,�L
2018/08/09,15:40,0.807,1.148,0.818,1.458,1.015,0.461,0.804,0.762,�k�k��,13.0,�L
2018/08/09,15:50,0.804,1.150,0.818,1.458,1.015,0.462,0.804,0.764,�k�k��,13.8,�L
2018/08/09,16:00,0.806,1.147,0.821,1.461,1.014,0.461,0.804,0.764,�k�k��,12.7,�L
2018/08/09,16:10,0.806,1.147,0.819,1.462,1.017,0.463,0.803,0.763,�k�k��,11.0,�L
2018/08/09,16:20,0.803,1.145,0.820,1.457,1.015,0.464,0.804,0.763,�k��,12.5,�L
2018/08/09,16:30,0.804,1.146,0.822,1.457,1.015,0.464,0.804,0.762,�k��,14.7,�L
2018/08/09,16:40,0.806,1.144,0.822,1.455,1.016,0.465,0.805,0.765,�k��,13.8,�L
2018/08/09,16:50,0.804,1.146,0.820,1.459,1.016,0.464,0.804,0.762,�k��,11.9,�L
2018/08/09,17:00,0.802,1.147,0.822,1.459,1.016,0.465,0.806,0.764,�k��,12.2,�L
2018/08/09,17:10,0.801,1.143,0.819,1.459,1.014,0.464,0.804,0.762,�k��,10.7,�L
2018/08/09,17:20,0.802,1.139,0.818,1.455,1.014,0.463,0.803,0.762,�k��,11.6,�L
2018/08/09,17:30,0.800,1.141,0.818,1.455,1.014,0.462,0.803,0.760,�k��,11.3,�L
2018/08/09,17:40,0.805,1.143,0.819,1.459,1.013,0.463,0.804,0.759,�k��,9.8,�L
2018/08/09,17:50,0.803,1.145,0.821,1.461,1.016,0.462,0.804,0.762,�k��,10.2,�L
2018/08/09,18:00,0.803,1.147,0.820,1.462,1.017,0.462,0.805,0.760,�k��,10.9,�L
2018/08/09,18:10,0.805,1.150,0.821,1.464,1.016,0.461,0.804,0.762,�k��,9.7,��
2018/08/09,18:20,0.805,1.146,0.819,1.467,1.017,0.459,0.803,0.763,�k��,8.2,��
2018/08/09,18:30,0.805,1.146,0.820,1.466,1.014,0.460,0.804,0.760,�k��,8.2,��
2018/08/09,18:40,0.803,1.149,0.820,1.469,1.015,0.459,0.806,0.761,�k��,9.0,��
2018/08/09,18:50,0.803,1.147,0.818,1.465,1.018,0.460,0.804,0.764,�k��,7.9,��
2018/08/09,19:00,0.803,1.151,0.819,1.469,1.015,0.459,0.806,0.765,�k��,8.8,��
2018/08/09,19:10,0.803,1.151,0.820,1.469,1.018,0.459,0.806,0.762,�k��,8.7,��
2018/08/09,19:20,0.804,1.151,0.822,1.472,1.018,0.459,0.806,0.762,�k��,6.9,��
2018/08/09,19:30,0.802,1.150,0.820,1.470,1.018,0.458,0.805,0.764,�k��,8.4,��
2018/08/09,19:40,0.804,1.153,0.820,1.470,1.019,0.459,0.808,0.762,�k��,6.8,��
2018/08/09,19:50,0.802,1.152,0.821,1.470,1.021,0.459,0.807,0.763,�k��,8.0,��
2018/08/09,20:00,0.804,1.151,0.822,1.474,1.020,0.459,0.805,0.764,�k��,7.3,��
2018/08/09,20:10,0.802,1.154,0.821,1.471,1.021,0.458,0.804,0.765,�k��,6.9,��
2018/08/09,20:20,0.803,1.156,0.821,1.474,1.021,0.458,0.807,0.765,�k��,7.3,��
2018/08/09,20:30,0.803,1.157,0.820,1.476,1.022,0.460,0.808,0.767,�k��,5.4,��
2018/08/09,20:40,0.804,1.158,0.821,1.475,1.023,0.460,0.806,0.765,�k��,4.3,��
2018/08/09,20:50,0.805,1.157,0.821,1.475,1.022,0.460,0.809,0.765,�k��,4.2,��
2018/08/09,21:00,0.805,1.154,0.822,1.475,1.025,0.460,0.808,0.765,�k��,5.0,��
2018/08/09,21:10,0.806,1.160,0.824,1.476,1.024,0.462,0.809,0.765,�k��,5.5,��
2018/08/09,21:20,0.804,1.158,0.824,1.476,1.024,0.460,0.808,0.767,�k��,4.9,��
2018/08/09,21:30,0.807,1.158,0.824,1.478,1.025,0.461,0.808,0.766,���k��,2.9,��
2018/08/09,21:40,0.804,1.158,0.823,1.478,1.028,0.461,0.809,0.768,���쐼,1.5,��
2018/08/09,21:50,0.807,1.157,0.826,1.479,1.027,0.460,0.808,0.766,��쐼,0.9,��
2018/08/09,22:00,0.806,1.160,0.823,1.478,1.027,0.463,0.808,0.767,��쐼,1.2,��
2018/08/09,22:10,0.807,1.160,0.822,1.480,1.026,0.461,0.806,0.766,��,1.2,��
2018/08/09,22:20,0.807,1.162,0.824,1.478,1.025,0.463,0.809,0.766,�쓌,1.5,��
2018/08/09,22:30,0.806,1.159,0.826,1.480,1.026,0.461,0.808,0.767,�쓌,0.9,��
2018/08/09,22:40,0.808,1.160,0.823,1.481,1.028,0.461,0.809,0.768,�쓌,2.2,��
2018/08/09,22:50,0.806,1.162,0.825,1.481,1.026,0.460,0.811,0.768,���쓌,1.2,��
2018/08/09,23:00,0.806,1.163,0.825,1.479,1.027,0.461,0.808,0.765,��,0.9,��
2018/08/09,23:10,0.807,1.160,0.825,1.481,1.027,0.461,0.809,0.767,�k��,1.7,��
2018/08/09,23:20,0.808,1.160,0.826,1.479,1.030,0.463,0.809,0.768,�k�k��,2.5,��
2018/08/09,23:30,0.810,1.161,0.827,1.480,1.029,0.462,0.810,0.767,�k,3.5,��
2018/08/09,23:40,0.806,1.161,0.827,1.480,1.030,0.462,0.809,0.768,�k��,3.9,��
2018/08/09,23:50,0.808,1.162,0.827,1.480,1.028,0.462,0.809,0.767,���쐼,0.8,��
